Location: Crescent
(42.8242°N, 73.7329°W)
Time: 19:24:41
(UTC+00:00)

Transit 2A - Pass Details

Date: 06 November 2024
Orbit: 593 x 956 km, 66.7° (Epoch: 14 December)

Event Time Altitude Azimuth Distance (km) Brightness Sun altitude
Rises 11:02:59 0° 214° (SW) 3,565 9.3 -6.6°
Reaches altitude 10° 11:05:29 10° 216° (SW) 2,650 8.6 -6.2°
Maximum altitude 11:11:46 76° 302° (WNW) 989 6.5 -5.1°
Drops below altitude 10° 11:18:05 10° 28° (NNE) 2,669 8.9 -4.0°
Sets 11:20:37 0° 30° (NNE) 3,593 9.6 -3.5°
